Time,TemperatureF,DewpointF,PressureIn,WindDirection,WindDirectionDegrees,WindSpeedMPH,WindSpeedGustMPH,Humidity,HourlyPrecipIn,Conditions,Clouds,dailyrainin,SolarRadiationWatts/m^2,SoftwareType,DateUTC
2013-01-09 00:00:00,27.9,25.1,29.95,SE,141,0.0,3.0,89,0.00,,---,0.00,0.00,VWS V14.00,2013-01-09 06:00:00,
2013-01-09 00:03:00,27.8,25.0,29.95,SE,142,0.0,1.0,89,0.00,,---,0.00,0.00,VWS V14.00,2013-01-09 06:03:00,
2013-01-09 00:08:00,27.8,25.0,29.95,SE,142,0.0,2.0,89,0.00,,---,0.00,0.00,VWS V14.00,2013-01-09 06:08:00,
2013-01-09 00:13:00,27.8,25.0,29.96,SE,143,0.0,2.0,89,0.00,,---,0.00,0.00,VWS V14.00,2013-01-09 06:13:00,
2013-01-09 00:18:00,27.8,25.0,29.96,SE,143,0.0,2.0,89,0.00,,---,0.00,0.00,VWS V14.00,2013-01-09 06:18:00,
2013-01-09 00:24:00,27.8,25.0,29.96,SE,143,0.0,2.0,89,0.00,,---,0.00,0.00,VWS V14.00,2013-01-09 06:24:00,
2013-01-09 00:29:00,27.8,25.0,29.97,SE,143,0.0,1.0,89,0.00,,---,0.00,0.00,VWS V14.00,2013-01-09 06:29:00,
2013-01-09 00:30:00,27.8,25.0,29.97,SE,143,1.0,2.0,89,0.00,,---,0.00,0.00,VWS V14.00,2013-01-09 06:30:00,
2013-01-09 00:34:00,27.8,25.0,29.97,SE,143,0.0,1.0,89,0.00,,---,0.00,0.00,VWS V14.00,2013-01-09 06:34:00,
2013-01-09 00:39:00,27.9,25.1,29.98,South,169,0.0,3.0,89,0.00,,---,0.00,0.00,VWS V14.00,2013-01-09 06:39:00,
2013-01-09 00:44:00,27.8,25.0,29.98,South,169,0.0,3.0,89,0.00,,---,0.00,0.00,VWS V14.00,2013-01-09 06:44:00,
2013-01-09 00:49:00,27.8,25.0,29.98,South,169,0.0,3.0,89,0.00,,---,0.00,0.00,VWS V14.00,2013-01-09 06:49:00,
2013-01-09 00:54:00,27.8,25.2,29.98,South,169,0.0,3.0,90,0.00,,---,0.00,0.00,VWS V14.00,2013-01-09 06:54:00,
2013-01-09 00:59:00,27.8,25.2,29.99,South,169,1.0,1.0,90,0.00,,---,0.00,0.00,VWS V14.00,2013-01-09 06:59:00,
2013-01-09 01:00:00,27.8,25.2,29.99,South,169,0.0,3.0,90,0.00,,---,0.00,0.00,VWS V14.00,2013-01-09 07:00:00,
2013-01-09 01:04:00,28.0,25.5,29.99,SSE,161,0.0,2.0,90,0.00,,---,0.00,0.00,VWS V14.00,2013-01-09 07:04:00,
2013-01-09 01:10:00,28.4,25.9,29.98,South,186,0.0,5.0,90,0.00,,---,0.00,0.00,VWS V14.00,2013-01-09 07:10:00,
2013-01-09 01:15:00,28.9,26.1,29.98,SSW,203,0.0,5.0,89,0.00,,---,0.00,0.00,VWS V14.00,2013-01-09 07:15:00,
2013-01-09 01:20:00,29.4,26.3,29.98,SSW,209,0.0,5.0,88,0.00,,---,0.00,0.00,VWS V14.00,2013-01-09 07:20:00,
2013-01-09 01:25:00,29.6,26.5,29.97,South,172,0.0,5.0,88,0.00,,---,0.00,0.00,VWS V14.00,2013-01-09 07:25:00,
2013-01-09 01:30:00,29.7,26.3,29.98,South,177,0.0,1.0,87,0.00,,---,0.00,0.00,VWS V14.00,2013-01-09 07:30:00,
2013-01-09 01:35:00,29.7,26.3,29.98,SSE,167,0.0,1.0,87,0.00,,---,0.00,0.00,VWS V14.00,2013-01-09 07:35:00,
2013-01-09 01:40:00,29.7,26.3,29.98,SSE,161,0.0,2.0,87,0.00,,---,0.00,0.00,VWS V14.00,2013-01-09 07:40:00,
2013-01-09 01:45:00,29.6,26.2,29.98,South,182,0.0,2.0,87,0.00,,---,0.00,0.00,VWS V14.00,2013-01-09 07:45:00,
2013-01-09 01:50:00,29.6,26.2,29.98,South,182,0.0,2.0,87,0.00,,---,0.00,0.00,VWS V14.00,2013-01-09 07:50:00,
2013-01-09 01:56:00,29.5,26.1,29.98,South,182,0.0,2.0,87,0.00,,---,0.00,0.00,VWS V14.00,2013-01-09 07:56:00,
2013-01-09 02:00:00,29.4,26.0,29.98,South,182,0.0,2.0,87,0.00,,---,0.00,0.00,VWS V14.00,2013-01-09 08:00:00,
2013-01-09 02:01:00,29.3,25.9,29.99,South,182,0.0,1.0,87,0.00,,---,0.00,0.00,VWS V14.00,2013-01-09 08:01:00,
2013-01-09 02:06:00,29.2,25.8,29.99,South,182,0.0,1.0,87,0.00,,---,0.00,0.00,VWS V14.00,2013-01-09 08:06:00,
2013-01-09 02:11:00,28.9,25.5,29.99,South,182,0.0,1.0,87,0.00,,---,0.00,0.00,VWS V14.00,2013-01-09 08:11:00,
2013-01-09 02:16:00,28.7,25.6,29.98,South,174,0.0,2.0,88,0.00,,---,0.00,0.00,VWS V14.00,2013-01-09 08:16:00,
2013-01-09 02:21:00,28.5,25.4,29.98,South,174,0.0,2.0,88,0.00,,---,0.00,0.00,VWS V14.00,2013-01-09 08:21:00,
2013-01-09 02:26:00,28.3,25.2,29.99,SSE,161,0.0,2.0,88,0.00,,---,0.00,0.00,VWS V14.00,2013-01-09 08:26:00,
2013-01-09 02:30:00,28.2,25.1,29.99,SSE,161,0.0,2.0,88,0.00,,---,0.00,0.00,VWS V14.00,2013-01-09 08:30:00,
2013-01-09 02:31:00,28.1,25.3,29.99,SSE,161,0.0,0.0,89,0.00,,---,0.00,0.00,VWS V14.00,2013-01-09 08:31:00,
2013-01-09 02:37:00,27.8,25.0,29.99,SSE,161,0.0,0.0,89,0.00,,---,0.00,0.00,VWS V14.00,2013-01-09 08:37:00,
2013-01-09 02:42:00,27.6,24.8,29.99,SSE,161,0.0,0.0,89,0.00,,---,0.00,0.00,VWS V14.00,2013-01-09 08:42:00,
2013-01-09 02:47:00,27.4,24.6,30.00,SSE,162,0.0,2.0,89,0.00,,---,0.00,0.00,VWS V14.00,2013-01-09 08:47:00,
2013-01-09 02:52:00,27.2,24.7,30.00,SSE,162,0.0,2.0,90,0.00,,---,0.00,0.00,VWS V14.00,2013-01-09 08:52:00,
2013-01-09 02:57:00,27.1,24.6,30.00,SSE,164,0.0,2.0,90,0.00,,---,0.00,0.00,VWS V14.00,2013-01-09 08:57:00,
2013-01-09 03:00:00,27.1,24.6,30.00,SSE,164,0.0,2.0,90,0.00,,---,0.00,0.00,VWS V14.00,2013-01-09 09:00:00,
2013-01-09 03:02:00,27.1,24.8,30.00,SSE,155,1.0,3.0,91,0.00,,---,0.00,0.00,VWS V14.00,2013-01-09 09:02:00,
2013-01-09 03:07:00,27.1,24.8,29.99,SSE,155,1.0,3.0,91,0.00,,---,0.00,0.00,VWS V14.00,2013-01-09 09:07:00,
2013-01-09 03:12:00,27.4,25.4,29.99,South,170,1.0,4.0,92,0.00,,---,0.00,0.00,VWS V14.00,2013-01-09 09:12:00,
2013-01-09 03:18:00,27.7,25.4,30.00,SE,142,0.0,4.0,91,0.00,,---,0.00,0.00,VWS V14.00,2013-01-09 09:18:00,
2013-01-09 03:23:00,27.9,25.6,30.00,SSE,153,0.0,4.0,91,0.00,,---,0.00,0.00,VWS V14.00,2013-01-09 09:23:00,
2013-01-09 03:28:00,28.0,25.5,30.00,SSW,197,0.0,2.0,90,0.00,,---,0.00,0.00,VWS V14.00,2013-01-09 09:28:00,
2013-01-09 03:30:00,27.9,25.4,30.00,SSW,197,1.0,4.0,90,0.00,,---,0.00,0.00,VWS V14.00,2013-01-09 09:30:00,
2013-01-09 03:33:00,28.3,25.8,30.01,SE,124,0.0,5.0,90,0.00,,---,0.00,0.00,VWS V14.00,2013-01-09 09:33:00,
2013-01-09 03:38:00,28.5,26.0,30.01,SW,229,0.0,5.0,90,0.00,,---,0.00,0.00,VWS V14.00,2013-01-09 09:38:00,
2013-01-09 03:43:00,28.8,26.0,30.01,SW,216,0.0,5.0,89,0.00,,---,0.00,0.00,VWS V14.00,2013-01-09 09:43:00,
2013-01-09 03:48:00,28.9,26.1,30.01,SSW,204,0.0,5.0,89,0.00,,---,0.00,0.00,VWS V14.00,2013-01-09 09:48:00,
2013-01-09 03:53:00,29.5,26.4,30.01,SSW,201,2.0,5.0,88,0.00,,---,0.00,0.00,VWS V14.00,2013-01-09 09:53:00,
2013-01-09 03:59:00,29.8,26.4,30.01,WSW,237,3.0,3.0,87,0.00,,---,0.00,0.00,VWS V14.00,2013-01-09 09:59:00,
2013-01-09 04:00:00,29.8,26.4,30.01,SW,232,2.0,5.0,87,0.00,,---,0.00,0.00,VWS V14.00,2013-01-09 10:00:00,
2013-01-09 04:04:00,30.1,26.4,30.01,SW,235,3.0,4.0,86,0.00,,---,0.00,0.00,VWS V14.00,2013-01-09 10:04:00,
2013-01-09 04:09:00,30.3,26.6,30.01,South,185,2.0,5.0,86,0.00,,---,0.00,0.00,VWS V14.00,2013-01-09 10:09:00,
2013-01-09 04:14:00,30.8,26.8,30.02,WNW,296,2.0,7.0,85,0.00,,---,0.00,0.00,VWS V14.00,2013-01-09 10:14:00,
2013-01-09 04:19:00,31.3,26.8,30.02,NNW,348,0.0,10.0,83,0.00,,---,0.00,0.00,VWS V14.00,2013-01-09 10:19:00,
2013-01-09 04:24:00,31.7,26.8,30.02,NW,323,2.0,10.0,82,0.00,,---,0.00,0.00,VWS V14.00,2013-01-09 10:24:00,
2013-01-09 04:29:00,31.9,26.7,30.02,SW,228,6.0,10.0,81,0.00,,---,0.00,0.00,VWS V14.00,2013-01-09 10:29:00,
2013-01-09 04:30:00,31.8,26.6,30.02,SSW,198,0.0,10.0,81,0.00,,---,0.00,0.00,VWS V14.00,2013-01-09 10:30:00,
2013-01-09 04:34:00,32.0,26.8,30.02,SSW,204,0.0,10.0,81,0.00,,---,0.00,0.00,VWS V14.00,2013-01-09 10:34:00,
2013-01-09 04:39:00,32.0,26.5,30.03,SW,229,2.0,10.0,80,0.00,,---,0.00,0.00,VWS V14.00,2013-01-09 10:39:00,
2013-01-09 04:45:00,32.0,26.8,30.03,SSW,200,1.0,10.0,81,0.00,,---,0.00,0.00,VWS V14.00,2013-01-09 10:45:00,
2013-01-09 04:50:00,32.1,26.9,30.03,NW,321,1.0,11.0,81,0.00,,---,0.00,0.00,VWS V14.00,2013-01-09 10:50:00,
2013-01-09 04:55:00,32.1,26.6,30.03,SSW,198,3.0,11.0,80,0.00,,---,0.00,0.00,VWS V14.00,2013-01-09 10:55:00,
2013-01-09 05:00:00,32.2,26.7,30.04,NNW,339,4.0,7.0,80,0.00,,---,0.00,0.00,VWS V14.00,2013-01-09 11:00:00,
2013-01-09 05:05:00,32.3,26.8,30.03,NW,320,0.0,7.0,80,0.00,,---,0.00,0.00,VWS V14.00,2013-01-09 11:05:00,
2013-01-09 05:10:00,32.2,26.7,30.03,SW,214,3.0,8.0,80,0.00,,---,0.00,0.00,VWS V14.00,2013-01-09 11:10:00,
2013-01-09 05:15:00,32.2,26.4,30.04,WNW,290,2.0,10.0,79,0.00,,---,0.00,0.00,VWS V14.00,2013-01-09 11:15:00,
2013-01-09 05:20:00,32.2,26.4,30.04,SW,215,1.0,10.0,79,0.00,,---,0.00,0.00,VWS V14.00,2013-01-09 11:20:00,
2013-01-09 05:25:00,32.1,26.3,30.04,SW,236,1.0,10.0,79,0.00,,---,0.00,0.00,VWS V14.00,2013-01-09 11:25:00,
2013-01-09 05:30:00,32.2,26.4,30.05,East,82,0.0,7.0,79,0.00,,---,0.00,0.00,VWS V14.00,2013-01-09 11:30:00,
2013-01-09 05:36:00,32.3,26.2,30.05,West,280,0.0,14.0,78,0.00,,---,0.00,0.00,VWS V14.00,2013-01-09 11:36:00,
2013-01-09 05:41:00,32.3,25.9,30.05,South,188,0.0,15.0,77,0.00,,---,0.00,0.00,VWS V14.00,2013-01-09 11:41:00,
2013-01-09 05:46:00,32.4,26.0,30.06,SW,236,1.0,15.0,77,0.00,,---,0.00,0.00,VWS V14.00,2013-01-09 11:46:00,
2013-01-09 05:51:00,32.4,25.7,30.06,NW,309,1.0,15.0,76,0.00,,---,0.00,0.00,VWS V14.00,2013-01-09 11:51:00,
2013-01-09 05:56:00,32.3,25.3,30.06,West,259,1.0,15.0,75,0.00,,---,0.00,0.00,VWS V14.00,2013-01-09 11:56:00,
2013-01-09 06:00:00,32.3,25.3,30.07,NNW,327,2.0,15.0,75,0.00,,---,0.00,0.00,VWS V14.00,2013-01-09 12:00:00,
2013-01-09 06:01:00,32.3,25.3,30.07,West,275,2.0,13.0,75,0.00,,---,0.00,0.00,VWS V14.00,2013-01-09 12:01:00,
2013-01-09 06:06:00,32.3,25.0,30.07,NW,313,3.0,14.0,74,0.00,,---,0.00,0.00,VWS V14.00,2013-01-09 12:06:00,
2013-01-09 06:11:00,32.3,25.0,30.08,NW,318,6.0,18.0,74,0.00,,---,0.00,0.00,VWS V14.00,2013-01-09 12:11:00,
2013-01-09 06:16:00,32.3,25.0,30.08,NW,325,3.0,18.0,74,0.00,,---,0.00,0.00,VWS V14.00,2013-01-09 12:16:00,
2013-01-09 06:22:00,32.1,24.8,30.08,NW,308,6.0,18.0,74,0.00,,---,0.00,0.00,VWS V14.00,2013-01-09 12:22:00,
2013-01-09 06:27:00,32.0,24.7,30.09,WNW,295,9.0,18.0,74,0.00,,---,0.00,0.00,VWS V14.00,2013-01-09 12:27:00,
2013-01-09 06:30:00,32.0,24.7,30.09,NNW,342,8.0,18.0,74,0.00,,---,0.00,0.00,VWS V14.00,2013-01-09 12:30:00,
2013-01-09 06:32:00,31.9,24.6,30.09,WNW,302,3.0,13.0,74,0.00,,---,0.00,0.00,VWS V14.00,2013-01-09 12:32:00,
2013-01-09 06:37:00,31.8,24.5,30.09,NW,307,10.0,14.0,74,0.00,,---,0.00,0.00,VWS V14.00,2013-01-09 12:37:00,
2013-01-09 06:42:00,31.7,24.4,30.09,NW,308,7.0,14.0,74,0.00,,---,0.00,0.00,VWS V14.00,2013-01-09 12:42:00,
2013-01-09 06:47:00,31.6,24.3,30.10,NW,324,9.0,16.0,74,0.00,,---,0.00,0.00,VWS V14.00,2013-01-09 12:47:00,
2013-01-09 06:52:00,31.4,24.1,30.10,NW,315,2.0,16.0,74,0.00,,---,0.00,0.00,VWS V14.00,2013-01-09 12:52:00,
2013-01-09 06:57:00,31.3,24.0,30.10,West,259,7.0,16.0,74,0.00,,---,0.00,0.00,VWS V14.00,2013-01-09 12:57:00,
2013-01-09 07:00:00,31.3,24.0,30.10,West,259,1.0,16.0,74,0.00,,---,0.00,0.00,VWS V14.00,2013-01-09 13:00:00,
2013-01-09 07:02:00,31.1,23.8,30.11,NW,309,7.0,11.0,74,0.00,,---,0.00,0.00,VWS V14.00,2013-01-09 13:02:00,
2013-01-09 07:07:00,31.0,23.7,30.11,NW,326,6.0,11.0,74,0.00,,---,0.00,0.00,VWS V14.00,2013-01-09 13:07:00,
2013-01-09 07:12:00,30.8,23.5,30.11,NNW,338,2.0,13.0,74,0.00,,---,0.00,0.00,VWS V14.00,2013-01-09 13:12:00,
2013-01-09 07:18:00,30.6,23.3,30.11,WNW,302,4.0,14.0,74,0.00,,---,0.00,0.00,VWS V14.00,2013-01-09 13:18:00,
2013-01-09 07:23:00,30.6,23.3,30.12,NNW,335,5.0,15.0,74,0.00,,---,0.00,0.00,VWS V14.00,2013-01-09 13:23:00,
2013-01-09 07:28:00,30.5,23.2,30.12,NW,313,4.0,4.0,74,0.00,,---,0.00,0.00,VWS V14.00,2013-01-09 13:28:00,
2013-01-09 07:30:00,30.5,23.2,30.12,NW,323,3.0,15.0,74,0.00,,---,0.00,0.00,VWS V14.00,2013-01-09 13:30:00,
2013-01-09 07:33:00,30.4,23.1,30.12,NW,326,12.0,13.0,74,0.00,,---,0.00,0.00,VWS V14.00,2013-01-09 13:33:00,
2013-01-09 07:38:00,30.4,22.8,30.12,WNW,296,6.0,14.0,73,0.00,,---,0.00,0.00,VWS V14.00,2013-01-09 13:38:00,
2013-01-09 07:43:00,30.2,22.9,30.13,NNW,344,6.0,14.0,74,0.00,,---,0.00,0.00,VWS V14.00,2013-01-09 13:43:00,
2013-01-09 07:48:00,30.0,22.4,30.13,NW,304,9.0,14.0,73,0.00,,---,0.00,0.00,VWS V14.00,2013-01-09 13:48:00,
2013-01-09 07:53:00,29.9,22.6,30.13,NW,326,3.0,14.0,74,0.00,,---,0.00,5.00,VWS V14.00,2013-01-09 13:53:00,
2013-01-09 07:58:00,29.7,22.4,30.13,West,269,0.0,2.0,74,0.00,,---,0.00,7.00,VWS V14.00,2013-01-09 13:58:00,
2013-01-09 08:00:00,29.7,22.4,30.14,West,269,1.0,14.0,74,0.00,,---,0.00,7.00,VWS V14.00,2013-01-09 14:00:00,
2013-01-09 08:03:00,29.7,22.4,30.14,WNW,294,3.0,9.0,74,0.00,,---,0.00,9.00,VWS V14.00,2013-01-09 14:03:00,
2013-01-09 08:08:00,29.6,22.4,30.14,NW,313,0.0,13.0,74,0.00,,---,0.00,11.00,VWS V14.00,2013-01-09 14:08:00,
2013-01-09 08:13:00,29.5,22.2,30.14,WNW,290,5.0,13.0,74,0.00,,---,0.00,11.00,VWS V14.00,2013-01-09 14:13:00,
2013-01-09 08:18:00,29.4,22.1,30.14,West,259,1.0,13.0,74,0.00,,---,0.00,12.00,VWS V14.00,2013-01-09 14:18:00,
2013-01-09 08:23:00,29.4,22.1,30.15,WSW,248,5.0,13.0,74,0.00,,---,0.00,14.00,VWS V14.00,2013-01-09 14:23:00,
2013-01-09 08:29:00,29.4,22.1,30.15,NW,325,5.0,11.0,74,0.00,,---,0.00,16.00,VWS V14.00,2013-01-09 14:29:00,
2013-01-09 08:30:00,29.4,22.1,30.15,NNW,331,11.0,14.0,74,0.00,,---,0.00,16.00,VWS V14.00,2013-01-09 14:30:00,
2013-01-09 08:34:00,29.4,21.8,30.15,NW,310,5.0,13.0,73,0.00,,---,0.00,16.00,VWS V14.00,2013-01-09 14:34:00,
2013-01-09 08:39:00,29.3,22.1,30.16,WNW,292,3.0,13.0,74,0.00,,---,0.00,18.00,VWS V14.00,2013-01-09 14:39:00,
2013-01-09 08:44:00,29.2,22.0,30.17,NW,323,6.0,15.0,74,0.00,,---,0.00,19.00,VWS V14.00,2013-01-09 14:44:00,
2013-01-09 08:49:00,29.2,22.0,30.17,NW,317,3.0,15.0,74,0.00,,---,0.00,21.00,VWS V14.00,2013-01-09 14:49:00,
2013-01-09 08:54:00,29.2,21.6,30.17,NW,323,3.0,15.0,73,0.00,,---,0.00,21.00,VWS V14.00,2013-01-09 14:54:00,
2013-01-09 08:59:00,29.2,21.6,30.17,NW,309,3.0,11.0,73,0.00,,---,0.00,23.00,VWS V14.00,2013-01-09 14:59:00,
2013-01-09 09:00:00,29.2,21.6,30.17,NW,310,3.0,15.0,73,0.00,,---,0.00,25.00,VWS V14.00,2013-01-09 15:00:00,
2013-01-09 09:04:00,29.3,21.7,30.17,NW,306,2.0,11.0,73,0.00,,---,0.00,25.00,VWS V14.00,2013-01-09 15:04:00,
2013-01-09 09:09:00,29.2,21.6,30.18,WNW,288,5.0,11.0,73,0.00,,---,0.00,25.00,VWS V14.00,2013-01-09 15:09:00,
2013-01-09 09:14:00,29.2,21.6,30.18,NW,306,10.0,11.0,73,0.00,,---,0.00,26.00,VWS V14.00,2013-01-09 15:14:00,
2013-01-09 09:19:00,29.3,21.4,30.18,NNE,12,5.0,11.0,72,0.00,,---,0.00,26.00,VWS V14.00,2013-01-09 15:19:00,
2013-01-09 09:24:00,29.5,21.3,30.19,West,278,5.0,16.0,71,0.00,,---,0.00,28.00,VWS V14.00,2013-01-09 15:24:00,
2013-01-09 09:29:00,29.6,21.4,30.19,NW,311,4.0,10.0,71,0.00,,---,0.00,28.00,VWS V14.00,2013-01-09 15:29:00,
2013-01-09 09:30:00,29.6,21.4,30.19,NW,310,5.0,16.0,71,0.00,,---,0.00,28.00,VWS V14.00,2013-01-09 15:30:00,
2013-01-09 09:34:00,29.6,21.4,30.20,NW,306,5.0,11.0,71,0.00,,---,0.00,32.00,VWS V14.00,2013-01-09 15:34:00,
2013-01-09 09:39:00,29.6,21.4,30.20,NW,319,4.0,15.0,71,0.00,,---,0.00,30.00,VWS V14.00,2013-01-09 15:39:00,
2013-01-09 09:45:00,29.6,21.4,30.19,NW,308,5.0,17.0,71,0.00,,---,0.00,32.00,VWS V14.00,2013-01-09 15:45:00,
2013-01-09 09:50:00,29.6,21.4,30.20,NW,304,17.0,19.0,71,0.00,,---,0.00,32.00,VWS V14.00,2013-01-09 15:50:00,
2013-01-09 09:55:00,29.7,21.5,30.20,NNW,344,7.0,19.0,71,0.00,,---,0.00,88.00,VWS V14.00,2013-01-09 15:55:00,
2013-01-09 10:00:00,29.7,21.5,30.20,NW,306,13.0,17.0,71,0.00,,---,0.00,53.00,VWS V14.00,2013-01-09 16:00:00,
2013-01-09 10:05:00,29.7,21.1,30.21,WNW,283,3.0,17.0,70,0.00,,---,0.00,39.00,VWS V14.00,2013-01-09 16:05:00,
2013-01-09 10:10:00,29.7,21.5,30.21,NW,309,6.0,17.0,71,0.00,,---,0.00,42.00,VWS V14.00,2013-01-09 16:10:00,
2013-01-09 10:15:00,29.8,21.2,30.21,NW,310,10.0,17.0,70,0.00,,---,0.00,67.00,VWS V14.00,2013-01-09 16:15:00,
2013-01-09 10:20:00,29.8,21.2,30.22,NW,321,3.0,19.0,70,0.00,,---,0.00,65.00,VWS V14.00,2013-01-09 16:20:00,
2013-01-09 10:25:00,29.8,21.2,30.22,NW,317,4.0,19.0,70,0.00,,---,0.00,56.00,VWS V14.00,2013-01-09 16:25:00,
2013-01-09 10:30:00,29.9,21.3,30.22,WNW,300,7.0,14.0,70,0.00,,---,0.00,91.00,VWS V14.00,2013-01-09 16:30:00,
2013-01-09 10:35:00,30.0,21.8,30.22,NW,312,7.0,14.0,71,0.00,,---,0.00,139.00,VWS V14.00,2013-01-09 16:35:00,
2013-01-09 10:41:00,30.1,21.9,30.22,NW,306,3.0,14.0,71,0.00,,---,0.00,109.00,VWS V14.00,2013-01-09 16:41:00,
2013-01-09 10:46:00,30.2,21.6,30.22,NW,306,7.0,14.0,70,0.00,,---,0.00,70.00,VWS V14.00,2013-01-09 16:46:00,
2013-01-09 10:51:00,30.2,21.6,30.23,WNW,299,7.0,14.0,70,0.00,,---,0.00,163.00,VWS V14.00,2013-01-09 16:51:00,
2013-01-09 10:56:00,30.3,21.7,30.23,West,281,2.0,14.0,70,0.00,,---,0.00,104.00,VWS V14.00,2013-01-09 16:56:00,
2013-01-09 11:00:00,30.3,21.7,30.23,NW,312,1.0,14.0,70,0.00,,---,0.00,53.00,VWS V14.00,2013-01-09 17:00:00,
2013-01-09 11:01:00,30.3,21.7,30.23,NW,313,2.0,12.0,70,0.00,,---,0.00,100.00,VWS V14.00,2013-01-09 17:01:00,
2013-01-09 11:06:00,30.3,21.7,30.24,NW,308,0.0,12.0,70,0.00,,---,0.00,88.00,VWS V14.00,2013-01-09 17:06:00,
2013-01-09 11:11:00,30.4,21.8,30.25,WNW,284,0.0,12.0,70,0.00,,---,0.00,107.00,VWS V14.00,2013-01-09 17:11:00,
2013-01-09 11:16:00,30.6,22.0,30.25,WNW,288,4.0,12.0,70,0.00,,---,0.00,123.00,VWS V14.00,2013-01-09 17:16:00,
2013-01-09 11:21:00,30.7,21.4,30.25,WNW,284,0.0,12.0,68,0.00,,---,0.00,144.00,VWS V14.00,2013-01-09 17:21:00,
2013-01-09 11:26:00,30.8,21.9,30.25,South,191,1.0,12.0,69,0.00,,---,0.00,125.00,VWS V14.00,2013-01-09 17:26:00,
2013-01-09 11:30:00,30.8,21.9,30.25,SSW,192,0.0,12.0,69,0.00,,---,0.00,118.00,VWS V14.00,2013-01-09 17:30:00,
2013-01-09 11:32:00,30.9,21.9,30.25,North,355,0.0,4.0,69,0.00,,---,0.00,111.00,VWS V14.00,2013-01-09 17:32:00,
2013-01-09 11:37:00,31.0,22.0,30.26,NW,320,4.0,5.0,69,0.00,,---,0.00,72.00,VWS V14.00,2013-01-09 17:37:00,
2013-01-09 11:42:00,31.0,22.0,30.26,NNW,329,3.0,10.0,69,0.00,,---,0.00,127.00,VWS V14.00,2013-01-09 17:42:00,
2013-01-09 11:47:00,31.0,21.7,30.26,SSW,192,2.0,10.0,68,0.00,,---,0.00,302.00,VWS V14.00,2013-01-09 17:47:00,
2013-01-09 11:52:00,31.2,22.2,30.27,SE,142,0.0,10.0,69,0.00,,---,0.00,378.00,VWS V14.00,2013-01-09 17:52:00,
2013-01-09 11:57:00,31.4,22.1,30.27,SW,214,0.0,10.0,68,0.00,,---,0.00,315.00,VWS V14.00,2013-01-09 17:57:00,
2013-01-09 12:00:00,31.4,22.1,30.27,SW,215,0.0,10.0,68,0.00,,---,0.00,315.00,VWS V14.00,2013-01-09 18:00:00,
2013-01-09 12:02:00,31.5,22.2,30.27,NNW,341,0.0,4.0,68,0.00,,---,0.00,306.00,VWS V14.00,2013-01-09 18:02:00,
2013-01-09 12:07:00,31.7,22.4,30.29,SSW,195,2.0,6.0,68,0.00,,---,0.00,297.00,VWS V14.00,2013-01-09 18:07:00,
2013-01-09 12:12:00,31.9,22.2,30.29,SW,221,0.0,6.0,67,0.00,,---,0.00,457.00,VWS V14.00,2013-01-09 18:12:00,
2013-01-09 12:17:00,31.9,22.2,30.28,SW,228,1.0,8.0,67,0.00,,---,0.00,432.00,VWS V14.00,2013-01-09 18:17:00,
2013-01-09 12:23:00,31.9,22.2,30.29,North,11,0.0,9.0,67,0.00,,---,0.00,438.00,VWS V14.00,2013-01-09 18:23:00,
2013-01-09 12:28:00,31.9,22.5,30.30,South,186,0.0,9.0,68,0.00,,---,0.00,181.00,VWS V14.00,2013-01-09 18:28:00,
2013-01-09 12:30:00,31.9,22.5,30.30,South,186,0.0,9.0,68,0.00,,---,0.00,181.00,VWS V14.00,2013-01-09 18:30:00,
2013-01-09 12:33:00,31.9,22.9,30.31,SW,224,0.0,5.0,69,0.00,,---,0.00,330.00,VWS V14.00,2013-01-09 18:33:00,
2013-01-09 12:38:00,31.8,23.1,30.31,SW,221,1.0,6.0,70,0.00,,---,0.00,446.00,VWS V14.00,2013-01-09 18:38:00,
2013-01-09 12:41:00,31.7,23.0,30.31,SE,129,3.0,6.0,70,0.00,,---,0.00,438.00,VWS V14.00,2013-01-09 18:41:00,
2013-01-09 12:42:00,31.7,23.0,30.31,ESE,123,0.0,6.0,70,0.00,,---,0.00,396.00,VWS V14.00,2013-01-09 18:42:00,
2013-01-09 12:43:00,31.6,23.0,30.31,SE,134,2.0,6.0,70,0.00,,---,0.00,334.00,VWS V14.00,2013-01-09 18:43:00,
2013-01-09 12:44:00,31.6,23.0,30.31,SW,217,0.0,9.0,70,0.00,,---,0.00,257.00,VWS V14.00,2013-01-09 18:44:00,
2013-01-09 12:45:00,31.6,23.0,30.31,SE,137,1.0,9.0,70,0.00,,---,0.00,183.00,VWS V14.00,2013-01-09 18:45:00,
2013-01-09 12:48:00,31.5,22.9,30.31,SW,222,0.0,9.0,70,0.00,,---,0.00,178.00,VWS V14.00,2013-01-09 18:48:00,
2013-01-09 12:49:00,31.5,22.9,30.31,SW,222,0.0,9.0,70,0.00,,---,0.00,216.00,VWS V14.00,2013-01-09 18:49:00,
2013-01-09 12:54:00,31.5,22.9,30.31,SW,229,0.0,9.0,70,0.00,,---,0.00,359.00,VWS V14.00,2013-01-09 18:54:00,
2013-01-09 12:59:00,31.7,23.0,30.31,SSW,203,0.0,3.0,70,0.00,,---,0.00,309.00,VWS V14.00,2013-01-09 18:59:00,
2013-01-09 13:00:00,31.7,23.0,30.31,SSW,208,1.0,9.0,70,0.00,,---,0.00,279.00,VWS V14.00,2013-01-09 19:00:00,
2013-01-09 13:30:00,32.9,23.5,30.32,SSW,202,1.0,9.0,68,0.00,,---,0.00,358.00,VWS V14.00,2013-01-09 19:30:00,
2013-01-09 14:00:00,32.7,23.0,30.34,SSW,202,1.0,6.0,67,0.00,,---,0.00,270.00,VWS V14.00,2013-01-09 20:00:00,
2013-01-09 14:30:00,32.7,23.3,30.36,South,180,1.0,7.0,68,0.00,,---,0.00,167.00,VWS V14.00,2013-01-09 20:30:00,
2013-01-09 15:00:00,31.9,23.2,30.37,SSW,202,0.0,5.0,70,0.00,,---,0.00,65.00,VWS V14.00,2013-01-09 21:00:00,
2013-01-09 15:30:00,31.5,23.2,30.38,SSW,202,0.0,7.0,71,0.00,,---,0.00,62.00,VWS V14.00,2013-01-09 21:30:00,
2013-01-09 16:00:00,30.9,23.6,30.40,South,180,1.0,6.0,74,0.00,,---,0.00,22.00,VWS V14.00,2013-01-09 22:00:00,
2013-01-09 16:30:00,30.2,23.2,30.38,SE,135,0.0,4.0,75,0.00,,---,0.00,15.00,VWS V14.00,2013-01-09 22:30:00,
2013-01-09 17:00:00,28.8,22.5,30.37,SE,135,0.0,1.0,77,0.00,,---,0.00,7.00,VWS V14.00,2013-01-09 23:00:00,
2013-01-09 17:30:00,26.0,21.0,30.37,SE,135,0.0,0.0,81,0.00,,---,0.00,0.00,VWS V14.00,2013-01-09 23:30:00,
2013-01-09 18:00:00,24.0,19.6,30.36,SE,135,0.0,0.0,83,0.00,,---,0.00,0.00,VWS V14.00,2013-01-10 00:00:00,
2013-01-09 18:30:00,22.2,18.4,30.35,SE,135,0.0,1.0,85,0.00,,---,0.00,0.00,VWS V14.00,2013-01-10 00:30:00,
2013-01-09 19:00:00,22.2,19.5,30.35,SE,135,0.0,1.0,89,0.00,,---,0.00,0.00,VWS V14.00,2013-01-10 01:00:00,
2013-01-09 19:30:00,23.3,20.8,30.35,SE,135,0.0,1.0,90,0.00,,---,0.00,0.00,VWS V14.00,2013-01-10 01:30:00,
2013-01-09 20:00:00,23.8,20.5,30.35,SE,135,0.0,2.0,87,0.00,,---,0.00,0.00,VWS V14.00,2013-01-10 02:00:00,
2013-01-09 20:30:00,21.5,18.2,30.34,SE,135,0.0,0.0,87,0.00,,---,0.00,0.00,VWS V14.00,2013-01-10 02:30:00,
2013-01-09 21:00:00,20.7,18.2,30.35,SE,135,0.0,0.0,90,0.00,,---,0.00,0.00,VWS V14.00,2013-01-10 03:00:00,
2013-01-09 21:30:00,21.9,19.9,30.34,SE,135,0.0,1.0,92,0.00,,---,0.00,0.00,VWS V14.00,2013-01-10 03:30:00,
2013-01-09 22:00:00,20.9,18.2,30.33,SE,135,0.0,0.0,89,0.00,,---,0.00,0.00,VWS V14.00,2013-01-10 04:00:00,
2013-01-09 22:30:00,22.0,20.0,30.32,SE,135,0.0,1.0,92,0.00,,---,0.00,0.00,VWS V14.00,2013-01-10 04:30:00,
2013-01-09 23:00:00,22.2,20.0,30.33,SE,135,0.0,1.0,91,0.00,,---,0.00,0.00,VWS V14.00,2013-01-10 05:00:00,
2013-01-09 23:30:00,21.5,19.0,30.33,SE,135,0.0,0.0,90,0.00,,---,0.00,0.00,VWS V14.00,2013-01-10 05:30:00,